This is the latest recevied weather packets stored in our database for station/object WP4NYS-13. If no packets are shown the sender has not sent any weather packets the latest 10 day(s).
| Time | Temp. | Humidity | Pressure | Rain* | Wind** | Luminosity | Snow |
|---|---|---|---|---|---|---|---|
| 1777932568 | 27.78° C | 37% | 1015.1 hPa | 0 mm | - | - | - |
| 1777932265 | 27.78° C | 37% | 1015.3 hPa | 0 mm | - | - | - |
| 1777931962 | 27.78° C | 37% | 1015.1 hPa | 0 mm | - | - | - |
| 1777931658 | 28.33° C | 37% | 1015.4 hPa | 0 mm | - | - | - |
| 1777931355 | 28.33° C | 36% | 1015.1 hPa | 0 mm | - | - | - |
| 1777931052 | 28.89° C | 35% | 1015.4 hPa | 0 mm | - | - | - |
| 1777930748 | 28.89° C | 35% | 1014.9 hPa | 0 mm | - | - | - |
| 1777930444 | 28.33° C | 33% | 1015.1 hPa | 0 mm | - | - | - |
| 1777930142 | 28.33° C | 32% | 1015 hPa | 0 mm | - | - | - |
| 1777929837 | 28.33° C | 31% | 1015.1 hPa | 0 mm | - | - | - |
| 1777929535 | 28.33° C | 31% | 1015.1 hPa | 0 mm | - | - | - |
| 1777929231 | 28.33° C | 32% | 1015.2 hPa | 0 mm | - | - | - |
| 1777928929 | 28.33° C | 32% | 1015.3 hPa | 0 mm | - | - | - |
| 1777928625 | 28.33° C | 32% | 1015.3 hPa | 0 mm | - | - | - |
| 1777928323 | 28.33° C | 31% | 1015.5 hPa | 0 mm | - | - | - |
| 1777928020 | 28.89° C | 31% | 1015.2 hPa | 0 mm | - | - | - |
| 1777927718 | 29.44° C | 29% | 1015.6 hPa | 0 mm | - | - | - |
| 1777927417 | 28.89° C | 29% | 1015.6 hPa | 0 mm | - | - | - |
| 1777927116 | 28.89° C | 29% | 1015.4 hPa | 0 mm | - | - | - |
| 1777926812 | 29.44° C | 28% | 1015.4 hPa | 0 mm | - | - | - |
| 1777926508 | 29.44° C | 29% | 1015.8 hPa | 0 mm | - | - | - |
| 1777926206 | 29.44° C | 30% | 1015.7 hPa | 0 mm | - | - | - |
| 1777925902 | 30° C | 29% | 1015.8 hPa | 0 mm | - | - | - |
| 1777925599 | 30° C | 29% | 1015.8 hPa | 0 mm | - | - | - |
| 1777925297 | 30° C | 29% | 1016 hPa | 0 mm | - | - | - |
* Rain latest hour (hover to see other rain measurements)
** Current wind speed in m/s (hover to see current wind gust speed)